User: anonymous   Login
Location: Taipo
(41.0000°S, 175.9500°E)
Time: 12:10:50
(UTC+00:00)
Language:

Okean 3 - Orbit

View from above orbital plane
View from above orbital plane
View from above satellite
View from above satellite

Ground track
Ground track

The orbit data is extracted from the following two-line orbital elements,

1 21397U 91039A   24175.71392268  .00002411  00000-0  19980-3 0  9999
2 21397  82.5185 218.6997 0014357 288.3390  71.6271 14.98362915771375
Epoch (UTC): 23 June 2024 17:08:02
Eccentricity: 0.0014357
inclination: 82.5185°
perigee height: 562 km
apogee height: 582 km
right ascension of ascending node: 218.6997°
argument of perigee: 288.3390°
revolutions per day: 14.98362915
mean anomaly at epoch: 71.6271°
orbit number at epoch: 77137

The dashed part of the orbit path shows where the satellite is in the earth's shadow,  

DLR